Wind_Speed
36 36 35 35 35 34 34 34 34 34 34 34 34 34 34 34 33 34 34 34 35 35 35 35 36 36 37 37 38 38 38 38 38 38 38 39 39 38 38 38 38 39 39
38 37 37 36 36 36 36 35 35 35 35 35 35 35 36 36 36 36 36 36 37 37 37 36 37 37 38 38 39 40 40 40 41 40 39 39 40 40 40 40 40 40 40
38 38 38 38 38 37 37 36 36 37 37 36 36 36 37 37 37 37 37 38 38 38 38 39 39 39 39 40 41 41 42 43 43 42 42 41 41 41 41 42 41 42 42
40 40 40 40 39 39 39 38 38 38 38 38 39 39 39 39 39 38 39 39 39 39 40 40 41 41 42 43 43 44 44 44 44 44 44 44 44 44 44 44 44 44 44
41 41 41 41 41 41 41 40 40 41 40 40 40 40 40 40 40 40 40 41 41 41 42 42 43 43 44 45 45 45 45 45 45 46 46 46 47 47 47 47 46 46 46
42 42 43 43 43 43 43 43 43 43 43 42 43 43 43 43 43 43 42 42 43 42 43 44 45 46 46 47 47 47 47 47 47 48 48 49 49 49 49 49 48 48 47
42 43 43 44 44 45 45 45 45 45 45 45 45 45 44 44 45 45 44 44 44 45 46 47 47 48 48 48 48 49 49 49 49 49 50 50 50 50 50 50 50 49 49
44 44 44 45 46 47 48 47 47 47 47 46 46 46 46 45 45 45 46 45 45 46 47 47 48 48 49 48 48 49 49 49 50 51 51 51 51 51 51 51 51 50 50
45 46 46 47 48 49 49 49 49 49 49 48 48 48 48 47 46 45 46 46 46 46 47 47 47 48 48 48 48 48 49 50 50 51 51 51 52 52 52 51 51 51 51
46 46 47 48 48 49 50 50 50 50 50 50 49 49 49 49 48 47 46 46 47 46 46 46 47 47 48 48 48 49 49 49 50 50 51 51 51 51 52 52 51 51 51
48 48 47 48 48 48 49 50 50 50 51 51 50 49 50 50 50 49 48 47 47 47 47 46 46 46 47 48 49 49 50 51 50 51 51 51 51 51 51 51 51 51 51
49 49 49 49 49 49 50 50 51 51 50 50 50 50 50 51 51 50 50 49 49 48 47 47 46 47 47 49 49 49 50 51 52 52 52 53 52 52 52 52 52 51 51
51 52 51 51 51 51 51 51 51 51 51 51 50 50 51 51 51 51 50 50 49 48 47 47 48 49 49 48 49 50 50 50 51 52 53 53 52 52 53 51 51 50 50
51 52 53 52 51 52 52 52 52 52 52 51 52 52 51 51 50 50 50 50 49 48 48 48 49 49 49 49 49 49 49 50 50 51 51 50 50 50 50 49 49 48 49
50 51 51 51 51 51 52 52 52 52 52 52 52 51 51 50 51 51 51 50 50 49 48 48 48 49 49 49 48 48 48 47 47 47 47 47 46 46 46 46 45 46 46
48 49 50 50 51 51 52 52 52 52 52 52 52 52 51 51 51 51 51 51 50 50 49 48 48 48 48 47 47 46 46 46 45 45 45 44 44 43 43 43 44 44 44
47 48 49 49 50 51 52 52 52 52 52 52 52 53 52 51 51 49 49 49 49 49 49 47 48 48 46 46 45 45 44 44 43 43 42 41 40 40 41 41 42 43 42
44 45 46 46 47 48 49 49 51 51 51 52 52 51 51 51 50 49 48 48 48 48 48 47 47 46 46 45 44 43 42 41 39 39 38 38 38 39 40 40 41 40 39
42 43 43 43 44 45 45 46 48 49 50 50 50 49 49 48 48 47 47 47 47 47 47 45 44 44 43 41 41 40 39 38 37 37 37 37 38 38 38 38 38 38 38
40 41 42 43 43 43 44 44 45 46 46 47 46 46 46 46 45 45 45 45 45 45 44 43 41 41 40 38 37 36 36 35 35 35 35 36 37 37 36 36 36 36 36
39 39 40 42 42 42 42 43 43 43 44 43 43 43 43 43 43 44 43 43 43 42 42 41 40 40 38 36 35 34 35 34 34 34 34 34 34 34 33 34 34 34 33
38 39 39 40 41 42 41 41 40 40 40 40 40 41 42 43 43 43 43 42 41 40 39 39 38 37 36 35 34 34 33 32 32 32 32 32 32 31 32 32 32 32 31
35 36 36 37 37 38 37 37 36 36 36 36 36 38 40 41 41 40 40 40 39 38 37 36 36 35 34 33 32 32 31 31 32 31 31 30 30 30 30 29 30 29 28
33 33 33 33 33 33 33 33 33 33 33 33 34 35 36 37 37 37 36 36 36 36 34 33 33 33 32 31 31 30 30 30 30 30 29 29 28 28 28 27 28 28 27
31 31 31 31 30 30 31 31 31 31 31 32 32 33 32 32 32 32 33 33 32 30 29 29 28 28 28 28 27 27 27 27 27 28 27 27 27 26 26 26 26 26 26
29 30 30 29 29 29 29 29 30 30 31 31 30 30 30 29 29 29 29 28 27 26 26 26 26 25 25 24 23 23 24 24 24 24 24 24 24 23 23 23 23 23 23
Wind_Direction
257 257 257 257 259 260 261 263 264 266 268 269 270 270 270 270 271 272 273 274 274 274 273 274 274 274 274 274 274 274 274 274 275 277 278 278 278 277 278 278 279 279 280
257 257 258 258 259 260 261 263 264 266 268 270 271 272 271 271 272 272 273 273 274 274 274 274 273 274 274 274 274 274 275 275 276 277 278 278 278 277 278 279 278 278 279
257 258 258 258 259 261 262 262 264 266 268 270 272 272 272 272 273 272 273 273 274 274 274 274 274 274 274 274 275 276 276 277 277 277 278 278 278 278 279 278 279 279 279
257 259 259 259 259 260 261 263 265 266 268 269 271 272 272 273 273 273 273 274 274 274 274 273 273 273 273 274 275 276 277 277 276 276 277 278 278 278 279 279 278 279 279
257 258 260 260 260 261 262 264 266 266 268 269 271 272 272 272 273 273 276 276 275 275 274 273 273 274 275 275 276 276 276 277 277 277 277 277 278 277 278 278 278 278 279
257 259 261 260 261 263 264 265 265 267 268 269 270 272 273 273 273 273 275 277 276 275 276 275 275 275 275 276 276 276 276 276 277 277 277 277 277 277 278 278 277 277 277
259 260 261 262 262 263 264 266 266 267 268 269 270 272 272 273 274 275 276 277 278 277 277 277 277 277 276 276 275 275 275 275 276 276 277 277 277 277 277 277 276 276 275
260 261 262 263 263 264 265 267 268 268 268 269 271 272 272 273 274 275 276 278 279 280 279 279 279 278 277 276 275 275 275 276 276 276 276 277 276 276 276 277 276 276 275
262 263 265 265 264 264 266 267 269 270 270 270 271 273 274 274 275 275 277 278 280 280 281 280 278 277 277 277 276 276 276 277 277 277 276 276 276 276 276 275 275 275 274
263 264 267 266 265 265 266 267 268 269 270 271 272 273 273 274 275 276 277 278 280 281 282 280 278 277 277 277 277 278 277 278 278 278 278 278 277 276 276 275 275 274 274
263 264 268 268 267 267 267 267 267 269 270 271 272 273 273 273 275 276 276 277 279 280 280 280 279 279 278 279 279 279 278 279 279 279 278 278 277 277 276 276 275 275 274
265 266 268 269 268 267 267 267 268 269 269 270 271 272 273 274 275 276 276 276 276 277 278 278 279 279 280 280 281 279 279 280 279 279 279 278 278 277 277 277 276 275 275
265 266 267 268 268 267 267 268 269 269 269 269 270 272 273 274 275 275 275 275 275 275 276 278 279 279 280 281 281 281 280 280 280 280 280 280 279 278 278 277 276 275 276
266 267 268 268 268 268 268 268 269 269 269 269 270 271 272 272 273 274 275 275 275 274 276 278 278 279 281 282 282 282 281 281 280 280 281 280 279 278 277 276 275 276 276
267 268 269 269 268 269 269 269 269 268 269 270 270 270 271 271 271 273 274 275 277 277 277 277 278 279 280 282 283 283 283 282 282 281 281 279 278 276 275 275 275 276 276
267 268 269 270 270 270 269 269 269 270 269 269 269 270 270 271 272 272 274 275 276 277 277 278 279 281 282 283 283 282 283 283 282 281 281 280 278 276 276 276 276 276 276
269 269 270 271 271 271 270 269 269 270 270 270 270 270 270 270 272 273 274 274 275 276 278 279 280 281 282 283 283 282 283 283 282 281 280 279 277 277 277 277 278 278 277
271 271 272 272 271 272 271 270 269 269 270 271 271 271 270 270 272 273 273 274 274 276 278 280 280 281 281 282 282 282 282 282 281 280 280 278 278 279 277 278 279 278 278
272 272 272 273 273 272 271 271 271 270 271 272 271 270 269 270 272 273 273 274 274 275 278 279 280 281 281 282 282 281 281 280 279 279 279 278 279 279 277 277 278 279 278
274 273 272 273 274 274 273 273 273 272 271 271 270 269 269 270 271 272 272 272 272 275 276 277 278 280 280 281 281 280 281 280 279 279 281 281 281 279 277 277 278 278 279
274 274 273 273 273 273 273 274 274 273 273 271 270 270 270 270 271 271 272 272 273 274 275 276 277 278 279 280 281 282 281 279 279 281 283 283 282 281 280 280 280 279 279
275 275 274 273 273 273 273 274 275 274 273 272 270 270 271 272 271 272 272 272 273 274 274 275 276 278 279 280 281 282 280 279 280 282 283 283 282 281 282 283 283 282 282
277 276 275 273 273 273 272 272 272 273 274 274 272 271 271 272 272 273 272 272 272 273 273 275 276 278 279 280 279 278 278 279 280 282 282 282 282 282 282 282 281 282 282
279 278 275 274 274 274 274 272 272 273 274 275 275 274 273 273 273 273 272 272 273 273 273 274 275 277 278 280 280 277 276 277 280 280 281 282 282 282 281 281 281 283 283
280 279 275 275 275 275 275 272 271 272 274 274 274 275 274 274 273 272 271 270 272 273 275 275 275 276 277 279 278 276 276 276 279 279 279 280 279 280 280 282 283 284 285
281 279 276 276 276 276 275 273 272 274 275 275 275 274 273 273 273 272 272 270 270 272 274 274 274 275 278 280 278 277 277 278 279 279 279 280 281 282 282 282 284 285 285
Height
5774 5776 5777 5778 5779 5780 5781 5782 5782 5783 5783 5783 5783 5783 5783 5783 5782 5782 5782 5781 5781 5780 5780 5779 5779 5778 5778 5778 5778 5778 5778 5777 5777 5776 5776 5775 5775 5774 5774 5773 5772 5772 5771
5766 5768 5769 5770 5771 5772 5773 5774 5774 5775 5775 5775 5775 5775 5775 5774 5774 5774 5773 5773 5772 5772 5772 5771 5770 5769 5769 5768 5768 5768 5768 5768 5767 5767 5766 5766 5765 5765 5764 5764 5763 5762 5762
5757 5759 5760 5762 5763 5764 5765 5766 5766 5766 5767 5767 5766 5766 5766 5765 5765 5765 5764 5764 5764 5763 5762 5761 5761 5760 5760 5759 5758 5758 5758 5757 5757 5756 5756 5756 5755 5755 5754 5754 5753 5752 5751
5749 5750 5752 5753 5754 5755 5756 5757 5757 5758 5758 5758 5758 5757 5757 5756 5756 5755 5755 5754 5754 5753 5753 5752 5751 5750 5750 5749 5748 5748 5747 5746 5746 5746 5745 5745 5744 5744 5744 5743 5743 5742 5741
5740 5741 5742 5744 5745 5745 5747 5747 5748 5749 5749 5749 5748 5748 5747 5747 5746 5746 5745 5744 5744 5743 5742 5742 5741 5740 5739 5738 5737 5736 5735 5735 5734 5734 5733 5733 5732 5732 5732 5731 5731 5730 5730
5730 5732 5733 5734 5735 5735 5737 5737 5738 5738 5739 5739 5738 5738 5737 5737 5736 5735 5735 5734 5733 5732 5731 5730 5729 5729 5727 5726 5725 5724 5723 5723 5722 5721 5721 5720 5720 5719 5719 5719 5718 5718 5717
5720 5721 5722 5724 5724 5725 5726 5727 5727 5728 5728 5728 5728 5728 5727 5726 5726 5725 5724 5723 5722 5721 5720 5719 5717 5716 5715 5714 5713 5712 5711 5710 5709 5708 5708 5707 5706 5706 5705 5705 5705 5705 5704
5710 5711 5712 5713 5714 5714 5715 5715 5716 5716 5716 5716 5716 5716 5716 5717 5715 5714 5712 5711 5710 5709 5707 5706 5705 5703 5702 5701 5700 5699 5697 5696 5695 5695 5694 5693 5692 5692 5691 5691 5691 5691 5691
5699 5700 5701 5702 5702 5703 5703 5703 5704 5704 5705 5704 5704 5703 5703 5704 5704 5704 5702 5700 5698 5697 5695 5693 5692 5690 5689 5688 5687 5685 5684 5683 5682 5680 5679 5679 5678 5677 5677 5676 5676 5676 5677
5688 5688 5689 5689 5690 5691 5691 5691 5691 5692 5692 5692 5692 5691 5691 5691 5691 5692 5691 5689 5687 5685 5683 5681 5680 5678 5676 5675 5674 5672 5671 5669 5668 5666 5665 5664 5664 5663 5662 5662 5662 5662 5662
5676 5676 5676 5677 5677 5678 5678 5678 5678 5679 5679 5679 5679 5679 5678 5678 5677 5677 5678 5678 5675 5673 5672 5670 5668 5666 5664 5663 5661 5659 5657 5656 5654 5653 5651 5650 5650 5649 5648 5647 5647 5647 5647
5664 5664 5664 5664 5665 5665 5665 5665 5666 5666 5666 5666 5666 5666 5665 5665 5665 5664 5664 5664 5663 5662 5660 5658 5656 5654 5652 5650 5648 5646 5644 5642 5640 5639 5637 5636 5635 5635 5634 5633 5633 5632 5632
5652 5652 5652 5652 5652 5652 5652 5652 5652 5652 5652 5653 5653 5653 5652 5651 5650 5650 5649 5649 5649 5650 5648 5646 5644 5641 5639 5637 5635 5632 5630 5628 5626 5625 5623 5622 5621 5620 5619 5619 5618 5618 5618
5638 5638 5638 5638 5638 5638 5638 5638 5638 5638 5638 5639 5639 5639 5638 5638 5637 5636 5636 5635 5635 5636 5636 5634 5631 5628 5626 5624 5622 5619 5617 5615 5613 5611 5609 5608 5606 5605 5605 5604 5604 5604 5604
5625 5625 5624 5624 5624 5624 5623 5624 5624 5624 5625 5625 5625 5625 5625 5625 5624 5624 5623 5622 5621 5622 5623 5621 5619 5616 5613 5611 5609 5606 5604 5602 5600 5598 5596 5594 5593 5592 5591 5591 5591 5591 5590
5611 5611 5611 5610 5610 5609 5609 5609 5610 5610 5610 5611 5611 5611 5611 5611 5611 5611 5610 5609 5607 5607 5607 5607 5605 5603 5600 5598 5596 5594 5592 5590 5587 5585 5584 5582 5581 5580 5580 5579 5579 5578 5577
5597 5597 5597 5597 5596 5595 5595 5595 5596 5596 5596 5596 5596 5596 5597 5598 5598 5597 5597 5596 5595 5594 5593 5594 5591 5590 5588 5586 5584 5582 5580 5578 5576 5574 5572 5571 5570 5569 5569 5568 5567 5566 5565
5585 5584 5584 5583 5583 5582 5581 5581 5581 5582 5582 5582 5582 5582 5582 5583 5584 5584 5584 5583 5583 5581 5580 5580 5579 5578 5575 5574 5572 5571 5569 5567 5565 5563 5562 5561 5560 5559 5558 5557 5556 5555 5554
5572 5571 5571 5570 5569 5569 5568 5567 5567 5568 5568 5568 5568 5568 5569 5570 5571 5571 5571 5570 5570 5569 5568 5568 5567 5566 5564 5563 5562 5560 5558 5556 5555 5553 5552 5551 5550 5549 5548 5546 5545 5545 5544
5560 5559 5559 5558 5557 5556 5556 5555 5555 5555 5555 5555 5555 5556 5557 5557 5558 5558 5558 5558 5558 5557 5557 5556 5556 5555 5554 5553 5552 5550 5549 5547 5546 5544 5543 5542 5540 5539 5538 5537 5536 5535 5534
5549 5548 5547 5546 5546 5545 5544 5543 5543 5543 5543 5543 5543 5544 5544 5545 5545 5545 5546 5546 5546 5546 5545 5545 5545 5545 5544 5544 5543 5541 5540 5539 5537 5536 5535 5533 5532 5531 5529 5528 5527 5526 5525
5538 5537 5536 5535 5534 5534 5533 5533 5532 5532 5532 5532 5532 5533 5533 5534 5534 5534 5534 5534 5535 5535 5535 5535 5535 5535 5535 5534 5533 5532 5531 5531 5530 5529 5527 5525 5524 5522 5521 5520 5519 5518 5517
5528 5526 5525 5524 5524 5523 5522 5522 5522 5522 5522 5522 5522 5523 5523 5523 5523 5523 5523 5524 5524 5524 5525 5525 5526 5526 5526 5526 5525 5524 5523 5522 5521 5520 5519 5518 5516 5515 5513 5512 5511 5510 5509
5518 5517 5516 5515 5514 5513 5513 5512 5512 5513 5513 5513 5513 5513 5513 5513 5513 5513 5514 5514 5515 5516 5516 5516 5517 5517 5517 5516 5516 5515 5515 5514 5513 5512 5511 5510 5509 5507 5506 5504 5503 5502 5501
5509 5507 5506 5505 5505 5505 5504 5504 5504 5505 5505 5505 5505 5504 5504 5504 5504 5504 5505 5506 5507 5507 5507 5508 5508 5508 5508 5508 5507 5507 5507 5506 5506 5505 5504 5503 5502 5501 5499 5498 5496 5495 5494
5500 5499 5498 5496 5496 5496 5496 5496 5496 5497 5497 5497 5496 5496 5496 5496 5496 5496 5497 5498 5499 5500 5500 5501 5501 5501 5501 5501 5500 5500 5500 5500 5499 5498 5497 5497 5495 5494 5493 5492 5491 5489 5488